THOR ABLESTAR DEB, 15558

Orbit data source: Space-Track

THOR ABLESTAR DEB, 15558 is space debris in LEO originally from a launch on Thu, 29 Jun 1961 UTC launched from the Air Force Eastern Test Range (AFETR). Debris objects in space refer to the collection of defunct objects orbiting the Earth. Examples of debris include non-operational satellites, rocket bodies, and fragments generated from explosions, collisions, or faulty payload assembly.

Loading next visibility...
Identifier
15558, 1961-015LE
Orbit
LEO
Country
Flag of USUS
Related business
Manufacturer
Unknown
Mission
Spacecraft
Bus & Motor
Unknown
Mass
Unknown
Launch date (UTC)
1961-06-29 (64 years ago)
Launch vehicle
Unknown
Launch site
Air Force Eastern Test Range (AFETR)
Object type
Payload
Rocket body
Debris
Shape & HBR
Unknown shape, 0.1 m
Radar Cross Section
Small (<0.1 m²)

Expand to show TLE details & history
Last TLE update: 18 hours ago

TLE from 18 hours ago
0 THOR ABLESTAR DEB
1 15558U 61015LE  25286.76960740  .00000304  00000-0  24112-3 0  9999
2 15558  65.5854 113.2260 0058290 206.6182 153.1899 14.04764929 89664
Epoch: 2025-10-13T18:28Z
TLE epoch observation values (Epoch: 2025-10-13T18:28:14.079Z)
Latitude
0.00002°
Longitude
173.59972°
Altitude
917.136 km
Speed
7.375 km/s
True Right ascension
07h 32m 54s
True Declination
0° 00' 00"
Sunlit
Object was in daylight at epoch
Visualization orbit readout
Latitude
Unknown
Longitude
Unknown
Altitude
Unknown
Speed
Unknown
Apparent Right ascension
Unknown
Apparent Declination
Unknown
Sunlit
N/A
Visualization observer readout
Local Sidereal Time
06:58:07
Azimuth
Unknown
Elevation
Unknown
Doppler factor
Unknown
Orbital elements
Apogee altitude
918.15 km
Perigee altitude
833.583 km
Semi-major axis
7,254.004 km
Eccentricity
0.00583
Inclination
65.5854°
RAAN
113.226°
Arg. of periapsis
206.6182°
True anomaly
153.48922°
Mean anomaly
153.1899°
Eccentric anomaly
153.33976°
Mean motion
3.51299 °/min
Orbital period
102.48 mins
BSTAR
0.00024112
Loading maneuver chart data...
Computing Atmospheric mass density...

Documentation

Showing up to 5 results
|